Weather in Owings Mills

United States     39°25′08″N   76°46′48″W
temp.,
°C
wind,
m/s
gust,
m/s
humid.,
%
clouds,
%
prec.,
mm/h
press.,
hPa
HPBL,
m
12 may, wed
wed1223:00+10nnw6124672 0.0 1022753
02:00+6nw41253100 0.0 1024635
05:00+4nw31265100 0.0 1024441
08:00+6nnw5106699 0.0 1026640
11:00+11n575996 0.0 10251193
14:00+15n464994 0.0 10242072
17:00+16n154467 0.0 10221645
20:00+12nw246553 0.0 102362
13 may, thu
thu1323:00+9nnw4107465 0.0 1025254
02:00+7n38783 0.0 1025160
05:00+6nnw38730 0.0 1026146
08:00+9nnw37600 0.0 1027247
11:00+15nnw45491 0.0 10271458
14:00+17nnw454179 0.0 10252501
17:00+17n254184 0.0 10242389
20:00+14nw1257100 0.0 102443
14 may, fri
fri1423:00+12nw366373 0.0 1025134
02:00+9nnw24705 0.0 102566
05:00+8nnw227223 0.0 102542
08:00+12nnw246510 0.0 1027178
11:00+17nnw224813 0.0 10261655
14:00+18nnw2142100 0.0 10252248
17:00+17nw225186 0.0 10241260
20:00+13nw11660 0.0 102413
15 may, sat
sat1523:00+11w11620 0.0 102510
02:00+9nw226518 0.0 102532
05:00+9nw22725 0.0 102537
08:00+13nnw12640 0.0 1026142
11:00+19nnw11505 0.0 10261081
14:00+21nw123896 0.1 10242590
17:00+20nne124399 0.0 10232261
20:00+15n126173 0.1 102566
16 may, sun
sun1623:00+13ssw11585 0.0 102511
02:00+11nw117028 0.0 102515
05:00+9n11771 0.0 102610
08:00+13wsw11685 0.0 1027153
11:00+19ssw225331 0.0 10261001
14:00+21wsw2348100 0.4 10251903
17:00+19e336099 0.6 1024597
20:00+14ssw2392100 1.5 1025105